Hourly Data Report for October 03, 2014

All times are specified in Local Standard Time (LST). Add 1 hour to adjust for Daylight Saving Time where and when it is observed.

BAKER LAKE A
NUNAVUT

64°17'56.000" N
96°04'40.000" W
18.60 m
2300503
71926
YBK

Download Data

Hourly Data (October 2014)
Hourly Data Report for October 3, 2014
Temp Definition
°C
Dew Point Temp Definition
°C
Rel Hum Definition
%
Wind Dir Definition
10's deg

Wind Spd Definition
km/h
Visibility Definition
km
Stn Press Definition
kPa
Hmdx Definition


Wind Chill Definition


Weather Definition


TIME
00:00 Legend Double Dagger -4.5 -7.9 77 1 26 24.1 100.90   -12 Cloudy
01:00 Legend Double Dagger -5.0 -8.1 79 36 30 24.1 100.92   -13 LegendNANA
02:00 Legend Double Dagger -5.3 -8.1 81 1 30 24.1 100.94   -13 LegendNANA
03:00 Legend Double Dagger -5.5 -8.3 81 36 28 24.1 101.00   -13 Mostly Cloudy
04:00 Legend Double Dagger -5.7 -8.3 82 36 30 24.1 101.06   -14 LegendNANA
05:00 Legend Double Dagger -5.8 -8.2 83 36 32 24.1 101.09   -14 LegendNANA
06:00 Legend Double Dagger -5.8 -8.2 83 36 25 32.2 101.16   -13 Mostly Cloudy
07:00 Legend Double Dagger -5.6 -7.9 84 35 23 32.2 101.22   -13 LegendNANA
08:00 Legend Double Dagger -5.1 -7.7 82 36 27 32.2 101.27   -13 LegendNANA
09:00 Legend Double Dagger -4.9 -7.7 81 36 26 32.2 101.31   -12 Mostly Cloudy
10:00 Legend Double Dagger -4.3 -7.8 77 36 26 32.2 101.35   -12 LegendNANA
11:00 Legend Double Dagger -4.0 -7.8 75 1 26 32.2 101.37   -11 LegendNANA
12:00 Legend Double Dagger -3.9 -7.7 75 36 26 32.2 101.41   -11 Cloudy
13:00 Legend Double Dagger -3.6 -7.2 76 1 18 32.2 101.43   -9 LegendNANA
14:00 Legend Double Dagger -3.6 -7.6 74 35 25 32.2 101.46   -11 LegendNANA
15:00 Legend Double Dagger -3.7 -7.5 75 36 21 32.2 101.51   -10 Cloudy
16:00 Legend Double Dagger -4.2 -7.8 76 1 18 32.2 101.56   -10 LegendNANA
17:00 Legend Double Dagger -4.3 -7.9 76 1 18 32.2 101.59   -10 LegendNANA
18:00 Legend Double Dagger -4.4 -8.0 76 1 15 24.1 101.60   -10 Cloudy
19:00 Legend Double Dagger -4.7 -8.0 78 2 12 24.1 101.64   -9 LegendNANA
20:00 Legend Double Dagger -4.9 -8.3 77 2 12 24.1 101.63   -10 LegendNANA
21:00 Legend Double Dagger -5.1 -9.0 74 2 16 24.1 101.60   -11 Cloudy
22:00 Legend Double Dagger -5.1 -8.7 76 2 13 24.1 101.57   -10 LegendNANA
23:00 Legend Double Dagger -5.2 -8.8 76 4 12 24.1 101.56   -10 LegendNANA

Notes on Data Quality.

Legend

  • E = Estimated
  • M = Missing
  • NA = Not Available
  • ‡ = Partner data that is not subject to review by the National Climate Archives
Date modified: